Hourly Weather Rudaki

Today, 2 August, Monday

Time Temperature Precipitation Wind Pressure Humidity
00:00 +18°C° 0.6 mm 2 mps 731 mmHg 92%
01:00 +18°C° 0.6 mm 2 mps 730 mmHg 94%
02:00 +18°C° 0 mm 2 mps 730 mmHg 95%
03:00 +18°C° 0.5 mm 2 mps 729 mmHg 95%
04:00 +18°C° 0.5 mm 3 mps 728 mmHg 95%
05:00 +18°C° 0.5 mm 3 mps 727 mmHg 95%
06:00 +19°C° 0.7 mm 4 mps 726 mmHg 92%
07:00 +20°C° 0.7 mm 6 mps 726 mmHg 89%
08:00 +21°C° 0 mm 6 mps 726 mmHg 87%
09:00 +21°C° 0.8 mm 7 mps 725 mmHg 88%
10:00 +20°C° 0.8 mm 7 mps 725 mmHg 88%
11:00 +20°C° 0.8 mm 7 mps 725 mmHg 89%
12:00 +18°C° 0.3 mm 7 mps 726 mmHg 88%
13:00 +18°C° 0.3 mm 7 mps 727 mmHg 86%
14:00 +18°C° 0 mm 7 mps 729 mmHg 83%
15:00 +17°C° 0.4 mm 7 mps 729 mmHg 87%
16:00 +16°C° 0.4 mm 6 mps 730 mmHg 91%
17:00 +15°C° 0.4 mm 6 mps 730 mmHg 95%
18:00 +14°C° 0.2 mm 5 mps 731 mmHg 95%
19:00 +14°C° 0.2 mm 5 mps 731 mmHg 95%
20:00 +14°C° 0.2 mm 4 mps 732 mmHg 96%
21:00 +14°C° 0 mm 4 mps 732 mmHg 96%
22:00 +14°C° 0 mm 4 mps 732 mmHg 96%
23:00 +14°C° 0 mm 3 mps 733 mmHg 96%

Tomorrow, 3 August, Tuesday

Time Temperature Precipitation Wind Pressure Humidity
00:00 +13°C° 0 mm 3 mps 733 mmHg 95%
01:00 +12°C° 0 mm 3 mps 733 mmHg 95%
02:00 +12°C° 0 mm 3 mps 733 mmHg 95%
03:00 +12°C° 0 mm 3 mps 733 mmHg 94%
04:00 +12°C° 0 mm 3 mps 734 mmHg 94%
05:00 +12°C° 0 mm 3 mps 734 mmHg 93%
06:00 +13°C° 0 mm 4 mps 734 mmHg 88%
07:00 +14°C° 0 mm 4 mps 734 mmHg 83%
08:00 +15°C° 0 mm 5 mps 734 mmHg 78%
09:00 +16°C° 0 mm 5 mps 735 mmHg 70%
10:00 +19°C° 0 mm 6 mps 735 mmHg 63%
11:00 +20°C° 0 mm 6 mps 735 mmHg 55%
12:00 +20°C° 0 mm 6 mps 735 mmHg 52%
13:00 +21°C° 0 mm 6 mps 735 mmHg 50%
14:00 +21°C° 0 mm 6 mps 735 mmHg 48%
15:00 +21°C° 0 mm 6 mps 736 mmHg 51%
16:00 +21°C° 0 mm 6 mps 736 mmHg 54%
17:00 +20°C° 0 mm 5 mps 736 mmHg 57%
18:00 +19°C° 0.1 mm 4 mps 736 mmHg 65%
19:00 +17°C° 0.1 mm 4 mps 736 mmHg 73%
20:00 +14°C° 0.1 mm 3 mps 736 mmHg 80%
21:00 +15°C° 0 mm 2 mps 737 mmHg 83%
22:00 +14°C° 0 mm 2 mps 737 mmHg 85%
23:00 +13°C° 0 mm 2 mps 737 mmHg 88%

Day after tomorrow, 4 August, Wednesday

Time Temperature Precipitation Wind Pressure Humidity
00:00 +13°C° 0 mm 2 mps 737 mmHg 89%
01:00 +13°C° 0 mm 2 mps 737 mmHg 90%
02:00 +12°C° 0 mm 2 mps 738 mmHg 91%
03:00 +13°C° 0 mm 2 mps 738 mmHg 89%
04:00 +13°C° 0 mm 1 mps 738 mmHg 87%
05:00 +13°C° 0 mm 1 mps 738 mmHg 86%
06:00 +14°C° 0 mm 1 mps 738 mmHg 80%
07:00 +16°C° 0 mm 2 mps 738 mmHg 75%
08:00 +17°C° 0 mm 2 mps 738 mmHg 70%
09:00 +17°C° 0.2 mm 2 mps 739 mmHg 73%
10:00 +17°C° 0.2 mm 2 mps 739 mmHg 77%
11:00 +16°C° 0.2 mm 2 mps 739 mmHg 81%
12:00 +18°C° 0.1 mm 2 mps 739 mmHg 74%
13:00 +19°C° 0.1 mm 2 mps 739 mmHg 68%
14:00 +21°C° 0.1 mm 2 mps 739 mmHg 62%
15:00 +21°C° 0.4 mm 2 mps 738 mmHg 65%
16:00 +20°C° 0.4 mm 2 mps 738 mmHg 69%
17:00 +20°C° 0.4 mm 2 mps 738 mmHg 72%
18:00 +19°C° 0.6 mm 3 mps 738 mmHg 79%
19:00 +17°C° 0.6 mm 3 mps 738 mmHg 86%
20:00 +15°C° 0.6 mm 4 mps 737 mmHg 93%
21:00 +16°C° 0.7 mm 3 mps 737 mmHg 94%
22:00 +14°C° 0.7 mm 3 mps 737 mmHg 95%
23:00 +15°C° 0.7 mm 2 mps 737 mmHg 96%

5 August, Thursday

Time Temperature Precipitation Wind Pressure Humidity
00:00 +15°C° 1.1 mm 2 mps 737 mmHg 97%
01:00 +15°C° 1.1 mm 2 mps 737 mmHg 97%
02:00 +15°C° 1.1 mm 2 mps 737 mmHg 98%
03:00 +15°C° 0.1 mm 2 mps 736 mmHg 98%
04:00 +15°C° 0.1 mm 2 mps 736 mmHg 98%
05:00 +15°C° 0.1 mm 2 mps 736 mmHg 98%
06:00 +15°C° 0 mm 1 mps 736 mmHg 96%
07:00 +16°C° 0 mm 1 mps 736 mmHg 94%
08:00 +15°C° 0 mm 0 mps 735 mmHg 92%
09:00 +18°C° 0 mm 1 mps 735 mmHg 89%
10:00 +18°C° 0 mm 1 mps 736 mmHg 85%
11:00 +18°C° 0 mm 2 mps 736 mmHg 82%
12:00 +20°C° 0 mm 1 mps 736 mmHg 78%
13:00 +21°C° 0 mm 1 mps 736 mmHg 75%
14:00 +21°C° 0 mm 1 mps 736 mmHg 72%
15:00 +21°C° 0.1 mm 1 mps 735 mmHg 76%
16:00 +20°C° 0.1 mm 1 mps 735 mmHg 79%
17:00 +20°C° 0.1 mm 1 mps 735 mmHg 83%
18:00 +18°C° 0 mm 2 mps 735 mmHg 85%
19:00 +18°C° 0 mm 2 mps 735 mmHg 88%
20:00 +17°C° 0 mm 2 mps 734 mmHg 91%
21:00 +17°C° 0 mm 2 mps 734 mmHg 92%
22:00 +16°C° 0 mm 3 mps 734 mmHg 93%
23:00 +16°C° 0 mm 3 mps 734 mmHg 94%

6 August, Friday

Time Temperature Precipitation Wind Pressure Humidity
00:00 +15°C° 0 mm 4 mps 733 mmHg 95%
01:00 +14°C° 0 mm 4 mps 733 mmHg 96%
02:00 +14°C° 0 mm 4 mps 733 mmHg 97%
03:00 +14°C° 0.5 mm 5 mps 732 mmHg 97%
04:00 +14°C° 0.5 mm 5 mps 732 mmHg 97%
05:00 +15°C° 0.5 mm 6 mps 731 mmHg 98%
06:00 +15°C° 0.4 mm 6 mps 730 mmHg 97%
07:00 +15°C° 0.4 mm 7 mps 730 mmHg 96%
08:00 +16°C° 0.4 mm 7 mps 730 mmHg 96%
09:00 +17°C° 0 mm 7 mps 729 mmHg 91%
10:00 +20°C° 0 mm 7 mps 729 mmHg 86%
11:00 +22°C° 0 mm 7 mps 729 mmHg 81%
12:00 +23°C° 0.3 mm 7 mps 729 mmHg 74%
13:00 +26°C° 0.3 mm 7 mps 728 mmHg 67%
14:00 +27°C° 0.3 mm 8 mps 728 mmHg 60%
15:00 +24°C° 0.3 mm 8 mps 728 mmHg 65%
16:00 +23°C° 0.3 mm 8 mps 728 mmHg 71%
17:00 +21°C° 0.3 mm 8 mps 728 mmHg 76%
18:00 +20°C° 0 mm 7 mps 729 mmHg 80%
19:00 +19°C° 0 mm 6 mps 729 mmHg 83%
20:00 +17°C° 0 mm 6 mps 730 mmHg 87%
21:00 +16°C° 0 mm 5 mps 730 mmHg 87%
22:00 +16°C° 0 mm 5 mps 730 mmHg 87%
23:00 +15°C° 0 mm 4 mps 731 mmHg 87%

7 August, Saturday

Time Temperature Precipitation Wind Pressure Humidity
00:00 +15°C° 0 mm 4 mps 731 mmHg 88%
01:00 +14°C° 0 mm 4 mps 731 mmHg 88%
02:00 +14°C° 0 mm 4 mps 731 mmHg 89%
03:00 +14°C° 0 mm 4 mps 731 mmHg 87%
04:00 +14°C° 0 mm 4 mps 732 mmHg 85%
05:00 +14°C° 0 mm 4 mps 732 mmHg 83%
06:00 +14°C° 0 mm 4 mps 732 mmHg 82%
07:00 +15°C° 0 mm 5 mps 733 mmHg 81%
08:00 +15°C° 0 mm 5 mps 733 mmHg 80%
09:00 +17°C° 0 mm 5 mps 733 mmHg 73%
10:00 +19°C° 0 mm 5 mps 734 mmHg 67%
11:00 +20°C° 0 mm 6 mps 734 mmHg 60%
12:00 +21°C° 0 mm 6 mps 735 mmHg 57%
13:00 +22°C° 0 mm 5 mps 735 mmHg 54%
14:00 +22°C° 0 mm 5 mps 735 mmHg 51%
15:00 +22°C° 0 mm 5 mps 735 mmHg 52%
16:00 +22°C° 0 mm 4 mps 736 mmHg 52%
17:00 +22°C° 0 mm 4 mps 736 mmHg 52%
18:00 +21°C° 0 mm 3 mps 736 mmHg 60%
19:00 +19°C° 0 mm 2 mps 737 mmHg 67%
20:00 +17°C° 0 mm 2 mps 737 mmHg 74%
21:00 +16°C° 0 mm 1 mps 737 mmHg 76%
22:00 +16°C° 0 mm 1 mps 737 mmHg 77%
23:00 +15°C° 0 mm 1 mps 738 mmHg 79%
Show more

We Need Your Consent

Meteoprog and our Service Providers may store and access personal data such as cookies, device identifiers or other similar technologies on your device and process such data to personalise content and ads, as well as provide social media features and to analyse the traffic.

  • Store and/or access information on your device

    Cookies, device identifiers or other information can be stored or accessed on your device for the purposes indicated above.

  • Personalised ads and content, ad and content measurement, audience insights, and products development

    Ads and content can be personalised based on a profile. More data can be added to better personalise ads and content. Ad and content performance can be measured. Insights about the audience who saw the ads and content can be derived. Such data can be used to develop or improve user’s experience, systems and software.

By clicking ‘I Agree’ you will allow the use of indicated cookies, device identifiers, web beacons or other similar technologies. Your settings can be changed in the browser on your device.

For certain purposes, legitimate interests may be relied on, rather than consent. You can read more about this in our Privacy and Cookie Policy.